• In Lithuania
  • List of Countries
  • For 7 days
  • Water Temperature
  • Satellite Maps
  • Weather Map
  • Weather Widgets
  • user-avatar
    Login

    Hourly Weather Erfurt

    Today, 22 October, Sunday

    Time Temperature Precipitation Wind Pressure Humidity
    00:00 +12°C° 0.9 mm 4 mps 743 mmHg 91%
    01:00 +11°C° 0 mm 4 mps 743 mmHg 90%
    02:00 +11°C° 0.1 mm 4 mps 743 mmHg 90%
    03:00 +10°C° 0.1 mm 4 mps 743 mmHg 90%
    04:00 +9°C° 0.1 mm 5 mps 743 mmHg 89%
    05:00 +8°C° 0 mm 5 mps 743 mmHg 89%
    06:00 +8°C° 0 mm 5 mps 743 mmHg 88%
    07:00 +8°C° 0 mm 5 mps 743 mmHg 88%
    08:00 +8°C° 0 mm 5 mps 742 mmHg 84%
    09:00 +9°C° 0 mm 6 mps 742 mmHg 80%
    10:00 +9°C° 0 mm 7 mps 742 mmHg 76%
    11:00 +9°C° 0.1 mm 7 mps 742 mmHg 76%
    12:00 +9°C° 0.1 mm 7 mps 742 mmHg 76%
    13:00 +9°C° 0.1 mm 7 mps 742 mmHg 76%
    14:00 +9°C° 0.3 mm 6 mps 742 mmHg 78%
    15:00 +9°C° 0.3 mm 6 mps 741 mmHg 79%
    16:00 +9°C° 0.3 mm 6 mps 741 mmHg 80%
    17:00 +8°C° 0.7 mm 6 mps 742 mmHg 83%
    18:00 +8°C° 0.7 mm 5 mps 742 mmHg 85%
    19:00 +8°C° 0.7 mm 5 mps 742 mmHg 88%
    20:00 +8°C° 0.4 mm 4 mps 743 mmHg 88%
    21:00 +7°C° 0.4 mm 4 mps 743 mmHg 89%
    22:00 +7°C° 0.4 mm 4 mps 743 mmHg 89%
    23:00 +7°C° 0 mm 4 mps 743 mmHg 89%

    Tomorrow, 23 October, Monday

    Time Temperature Precipitation Wind Pressure Humidity
    00:00 +6°C° 0 mm 4 mps 743 mmHg 90%
    01:00 +6°C° 0 mm 4 mps 743 mmHg 90%
    02:00 +6°C° 0 mm 4 mps 743 mmHg 90%
    03:00 +5°C° 0 mm 4 mps 743 mmHg 91%
    04:00 +5°C° 0 mm 4 mps 743 mmHg 92%
    05:00 +5°C° 0.1 mm 4 mps 744 mmHg 91%
    06:00 +6°C° 0.1 mm 4 mps 744 mmHg 91%
    07:00 +6°C° 0.1 mm 4 mps 744 mmHg 91%
    08:00 +7°C° 0.4 mm 4 mps 744 mmHg 89%
    09:00 +7°C° 0.4 mm 4 mps 744 mmHg 88%
    10:00 +8°C° 0.4 mm 5 mps 745 mmHg 87%
    11:00 +9°C° 0.1 mm 5 mps 745 mmHg 85%
    12:00 +9°C° 0.1 mm 5 mps 745 mmHg 83%
    13:00 +10°C° 0.1 mm 5 mps 745 mmHg 80%
    14:00 +9°C° 0.1 mm 5 mps 745 mmHg 82%
    15:00 +10°C° 0.1 mm 4 mps 745 mmHg 84%
    16:00 +10°C° 0.1 mm 4 mps 746 mmHg 86%
    17:00 +10°C° 0.2 mm 4 mps 746 mmHg 87%
    18:00 +10°C° 0.2 mm 4 mps 746 mmHg 89%
    19:00 +8°C° 0.2 mm 4 mps 747 mmHg 90%
    20:00 +8°C° 0 mm 4 mps 747 mmHg 91%
    21:00 +8°C° 0 mm 4 mps 747 mmHg 91%
    22:00 +8°C° 0 mm 4 mps 748 mmHg 92%
    23:00 +9°C° 0 mm 3 mps 748 mmHg 93%

    Day after tomorrow, 24 October, Tuesday

    Time Temperature Precipitation Wind Pressure Humidity
    00:00 +8°C° 0 mm 3 mps 748 mmHg 94%
    01:00 +8°C° 0 mm 3 mps 748 mmHg 95%
    02:00 +8°C° 0 mm 3 mps 748 mmHg 95%
    03:00 +8°C° 0 mm 3 mps 749 mmHg 95%
    04:00 +8°C° 0 mm 3 mps 749 mmHg 95%
    05:00 +8°C° 0 mm 2 mps 749 mmHg 95%
    06:00 +8°C° 0 mm 2 mps 749 mmHg 94%
    07:00 +8°C° 0 mm 2 mps 749 mmHg 94%
    08:00 +9°C° 0 mm 2 mps 749 mmHg 91%
    09:00 +10°C° 0 mm 2 mps 750 mmHg 88%
    10:00 +11°C° 0 mm 3 mps 750 mmHg 86%
    11:00 +12°C° 0 mm 3 mps 750 mmHg 84%
    12:00 +13°C° 0 mm 3 mps 750 mmHg 83%
    13:00 +14°C° 0 mm 3 mps 750 mmHg 81%
    14:00 +14°C° 0 mm 3 mps 750 mmHg 83%
    15:00 +14°C° 0 mm 3 mps 750 mmHg 85%
    16:00 +13°C° 0 mm 3 mps 749 mmHg 86%
    17:00 +13°C° 0 mm 3 mps 749 mmHg 89%
    18:00 +12°C° 0 mm 3 mps 750 mmHg 91%
    19:00 +12°C° 0 mm 3 mps 750 mmHg 94%
    20:00 +12°C° 0.1 mm 3 mps 750 mmHg 93%
    21:00 +12°C° 0.1 mm 3 mps 750 mmHg 93%
    22:00 +12°C° 0.1 mm 4 mps 750 mmHg 92%
    23:00 +12°C° 0 mm 3 mps 750 mmHg 92%

    25 October, Wednesday

    Time Temperature Precipitation Wind Pressure Humidity
    00:00 +12°C° 0 mm 3 mps 750 mmHg 92%
    01:00 +12°C° 0 mm 3 mps 749 mmHg 93%
    02:00 +12°C° 0 mm 3 mps 749 mmHg 93%
    03:00 +12°C° 0 mm 3 mps 749 mmHg 94%
    04:00 +12°C° 0 mm 3 mps 749 mmHg 94%
    05:00 +12°C° 0 mm 3 mps 749 mmHg 95%
    06:00 +12°C° 0 mm 3 mps 749 mmHg 95%
    07:00 +12°C° 0 mm 3 mps 749 mmHg 95%
    08:00 +12°C° 0 mm 3 mps 749 mmHg 92%
    09:00 +13°C° 0 mm 4 mps 750 mmHg 89%
    10:00 +14°C° 0 mm 4 mps 750 mmHg 86%
    11:00 +15°C° 0 mm 5 mps 750 mmHg 83%
    12:00 +16°C° 0 mm 5 mps 749 mmHg 81%
    13:00 +16°C° 0 mm 5 mps 749 mmHg 78%
    14:00 +16°C° 0 mm 5 mps 749 mmHg 80%
    15:00 +16°C° 0 mm 5 mps 749 mmHg 82%
    16:00 +15°C° 0 mm 5 mps 749 mmHg 84%
    17:00 +15°C° 0 mm 4 mps 749 mmHg 85%
    18:00 +15°C° 0 mm 4 mps 749 mmHg 86%
    19:00 +15°C° 0 mm 4 mps 749 mmHg 88%
    20:00 +14°C° 0 mm 3 mps 750 mmHg 89%
    21:00 +14°C° 0 mm 3 mps 750 mmHg 91%
    22:00 +13°C° 0 mm 3 mps 751 mmHg 92%
    23:00 +13°C° 0 mm 3 mps 751 mmHg 93%

    26 October, Thursday

    Time Temperature Precipitation Wind Pressure Humidity
    00:00 +13°C° 0 mm 2 mps 751 mmHg 95%
    01:00 +13°C° 0 mm 2 mps 751 mmHg 96%
    02:00 +12°C° 0 mm 2 mps 751 mmHg 96%
    03:00 +12°C° 0 mm 2 mps 751 mmHg 96%
    04:00 +12°C° 0 mm 2 mps 751 mmHg 96%
    05:00 +12°C° 0 mm 2 mps 751 mmHg 96%
    06:00 +12°C° 0 mm 2 mps 751 mmHg 95%
    07:00 +12°C° 0 mm 2 mps 752 mmHg 95%
    08:00 +13°C° 0 mm 2 mps 752 mmHg 92%
    09:00 +14°C° 0 mm 2 mps 752 mmHg 89%
    10:00 +14°C° 0 mm 3 mps 752 mmHg 86%
    11:00 +14°C° 0 mm 3 mps 752 mmHg 83%
    12:00 +16°C° 0 mm 3 mps 751 mmHg 80%
    13:00 +17°C° 0 mm 4 mps 751 mmHg 76%
    14:00 +16°C° 0 mm 3 mps 751 mmHg 77%
    15:00 +16°C° 0 mm 3 mps 751 mmHg 78%
    16:00 +16°C° 0 mm 2 mps 750 mmHg 79%
    17:00 +15°C° 0 mm 2 mps 750 mmHg 83%
    18:00 +14°C° 0 mm 2 mps 750 mmHg 87%
    19:00 +13°C° 0 mm 2 mps 750 mmHg 91%
    20:00 +13°C° 0 mm 2 mps 750 mmHg 92%
    21:00 +12°C° 0 mm 2 mps 750 mmHg 93%
    22:00 +12°C° 0 mm 2 mps 750 mmHg 94%
    23:00 +12°C° 0 mm 2 mps 749 mmHg 94%

    27 October, Friday

    Time Temperature Precipitation Wind Pressure Humidity
    00:00 +12°C° 0 mm 2 mps 749 mmHg 95%
    01:00 +10°C° 0 mm 2 mps 749 mmHg 95%
    02:00 +12°C° 0 mm 2 mps 748 mmHg 95%
    03:00 +12°C° 0 mm 2 mps 748 mmHg 95%
    04:00 +12°C° 0 mm 2 mps 747 mmHg 95%
    05:00 +11°C° 0 mm 3 mps 746 mmHg 95%
    06:00 +11°C° 0 mm 3 mps 746 mmHg 95%
    07:00 +11°C° 0 mm 3 mps 745 mmHg 95%
    08:00 +12°C° 0 mm 4 mps 745 mmHg 90%
    09:00 +12°C° 0 mm 5 mps 744 mmHg 86%
    10:00 +13°C° 0 mm 5 mps 744 mmHg 81%
    11:00 +14°C° 0 mm 6 mps 743 mmHg 77%
    12:00 +15°C° 0 mm 7 mps 742 mmHg 74%
    13:00 +16°C° 0 mm 7 mps 741 mmHg 70%
    14:00 +15°C° 0.1 mm 7 mps 740 mmHg 72%
    15:00 +15°C° 0.1 mm 7 mps 740 mmHg 74%
    16:00 +15°C° 0.1 mm 7 mps 739 mmHg 76%
    17:00 +12°C° 1.3 mm 7 mps 740 mmHg 79%
    18:00 +11°C° 1.3 mm 7 mps 740 mmHg 82%
    19:00 +9°C° 1.3 mm 7 mps 741 mmHg 85%
    20:00 +9°C° 0.2 mm 7 mps 742 mmHg 85%
    21:00 +8°C° 0.2 mm 6 mps 743 mmHg 85%
    22:00 +8°C° 0.2 mm 5 mps 744 mmHg 85%
    23:00 +8°C° 0 mm 5 mps 744 mmHg 86%
    Show more